Regional Weather Roundup
Issued by NWS Jackson, KY

Home | Current Version | Previous Version | Text Only | Print | Product List | Glossary Off
Versions: 1 2 3 4 5 6 7 8 9 10 11 12 13 14 15 16 17 18 19 20 21 22 23 24 25 26 27 28 29 30 31 32 33 34 35 36 37 38 39 40 41 42 43 44 45 46 47 48 49 50

000
ASUS43 KJKL 260010
RWRJKL

EAST KENTUCKY HOURLY WEATHER ROUNDUP
NATIONAL WEATHER SERVICE JACKSON KY
800 PM EDT THU AUG 25 2016

NOTE: "FAIR" INDICATES FEW OR NO CLOUDS BELOW 12,000 FEET WITH
NO SIGNIFICANT WEATHER AND/OR OBSTRUCTIONS TO VISIBILITY.

* THESE REPORTS ARE NOT UNDER NWS QUALITY CONTROL AND MAY NOT
  REPORT WEATHER SUCH AS PRECIPITATION AND FOG.

KYZ079-080-083-085-087-088-110-112-115-119-120-260100
...EASTERN KENTUCKY...

CITY           SKY/WX    TMP DP  RH WIND       PRES   REMARKS
JACKSON        CLEAR     82  71  69 W3        30.13S
6HR MIN TEMP:  82; 6HR MAX TEMP:  90; 6HR PCP: TRACE;

LONDON         CLEAR     86  70  58 CALM      30.12S HX  90
6HR MIN TEMP:  86; 6HR MAX TEMP:  90;

SOMERSET*      CLEAR     84  70  61 CALM      30.11S
MONTICELLO*    PTCLDY   N/A N/A N/A CALM      30.12S
WILLIAMSBURG*  CLEAR     84  77  79 CALM      30.12S HX  94
MIDDLESBORO*   CLEAR     80  76  87 CALM      30.14S
6HR MIN TEMP:  77; 6HR MAX TEMP:  87; 6HR PCP:  0.14;

HARLAN APT*    MOCLDY    81  73  78 CALM      30.15S
PIKE CO APT*     N/A     83  72  68 CALM      30.14R
BIG SANDY APT* CLEAR     85  73  66 CALM      30.12R HX  92
6HR MIN TEMP:  85; 6HR MAX TEMP:  90;

MOREHEAD APT*  CLEAR     82  73  74 SW5       30.10S
ASHLAND*       CLEAR     86  73  66 CALM      30.04S HX  93
$$

KYZ035-036-041-042-044-050-067-078-099-260100
...CENTRAL KENTUCKY...

CITY           SKY/WX    TMP DP  RH WIND       PRES   REMARKS
MT STERLING*   CLEAR    N/A N/A N/A SW5       30.11S
FLEMING/MASON* CLEAR     83  71  68 SW5       30.09R
DANVILLE*      CLEAR     82  73  74 CALM      30.10F
LEXINGTON      CLEAR     85  72  65 SW5       30.09S HX  91
6HR MIN TEMP:  85; 6HR MAX TEMP:  91;

FRANKFORT      CLEAR     86  69  56 CALM      30.06F HX  90
6HR MIN TEMP:  86; 6HR MAX TEMP:  92;

LOUISVILLE     PTCLDY    88  67  49 W9        30.04F HX  91
6HR MIN TEMP:  88; 6HR MAX TEMP:  93;

LEBANON*         N/A     86  73  66 CALM      30.08S HX  93
GLASGOW*       PTCLDY    84  76  76 CALM      30.08R HX  92
BOWLING GREEN  CLEAR     88  72  58 W3        30.06S HX  94
6HR MIN TEMP:  88; 6HR MAX TEMP:  94;

$$

KYZ091>093-OHZ055-061-077-WVZ005-015-034-035-042-260100
...SOUTHERN OHIO/WEST VIRGINIA...

CITY           SKY/WX    TMP DP  RH WIND       PRES   REMARKS
COVINGTON      PTCLDY    85  73  67 SW5       30.06S HX  91
COLUMBUS       PTCLDY    85  72  65 SW10      30.02S HX  91
DAYTON         PTCLDY    82  71  69 W10       30.05F
WILMINGTON     CLEAR     83  74  74 SW7       30.05F
HUNTINGTON     CLEAR     85  70  60 SW5       30.07S
CHARLESTON     PTCLDY    86  70  58 W6        30.08S HX  90
PINEVILLE*     CLEAR     76  71  84 MISG      30.20R
BECKLEY        CLOUDY    79  69  71 W5        30.20R
BLUEFIELD      PTCLDY    77  69  76 W5        30.23R
LOGAN CO APT*    N/A     82  73  74 CALM      30.13R
$$

VAZ002-007-008-TNZ017-027-036-066-071-260100
...SOUTHWEST VIRGINIA/EAST TENNESSEE...

CITY           SKY/WX    TMP DP  RH WIND       PRES   REMARKS
WISE*          CLEAR     81  61  50 CALM      30.23S
JONESVILLE*      N/A     84  73  70 CALM      30.16S HX  91
ABINGDON*      CLEAR     82  72  72 CALM      30.19R
BRISTOL        PTCLDY    84  70  62 W6        30.15R
MORRISTOWN*    CLEAR     84  73  70 CALM      30.13S HX  91
KNOXVILLE      PTCLDY    88  70  55 NW5       30.09F HX  93
OAK RIDGE      CLEAR     84  73  69 CALM      30.12  HX  90
CROSSVILLE     CLOUDY    81  72  74 CALM      30.17S
NASHVILLE      MOCLDY    85  76  74 CALM      30.08S HX  94
$$

...KEY TO REMARKS...
VSB - VISIBILITY IN MILES
WCI - WIND CHILL INDEX
HX  - HEAT INDEX

$$



USA.gov is the U.S. government's official web portal to all federal, state and local government web resources and services.